"2009-09-28 00:00:00",1279009,6.975,72.58,3.308,0.34,16.57,107.2592,17.86,18.95,21.59,0,110.8,13.24,18.67,34.6
"2009-09-28 00:00:30",1279010,6.725,73.17,2.493,0.291,16.57,107.2589,17.86,18.94,21.7,0,110.8,13.24,18.67,35.2
"2009-09-28 00:01:00",1279011,6.862,69.34,1.459,0.252,16.5,107.2589,17.86,18.93,21.69,0,110.8,13.24,18.67,31.3
"2009-09-28 00:01:30",1279012,6.591,73.06,1.346,0.14,16.56,107.2509,17.84,18.91,21.7,0,110.8,13.24,18.65,35.1
"2009-09-28 00:02:00",1279013,6.646,77.87,2.144,0.116,16.55,107.2363,17.8,18.9,22.03,0,110.8,13.24,18.62,39.9
"2009-09-28 00:02:30",1279014,6.967,78.52,2.079,0.24,16.59,107.2278,17.78,18.89,22.13,0,110.8,13.24,18.59,40.5
"2009-09-28 00:03:00",1279015,7.601,82.7,1.714,0.23,16.58,107.2294,17.78,18.88,22.03,0,110.8,13.24,18.60,44.7
"2009-09-28 00:03:30",1279016,7.595,83.4,1.855,0.239,16.59,107.2294,17.78,18.86,22.28,0,110.8,13.24,18.60,45.4
"2009-09-28 00:04:00",1279017,7.581,81.8,0.779,0.237,16.61,107.2125,17.74,18.85,22.01,0,110.8,13.24,18.55,43.8
"2009-09-28 00:04:30",1279018,7.332,79.69,1.062,0.157,16.59,107.1988,17.7,18.83,22.06,0,110.8,13.24,18.52,41.7
"2009-09-28 00:05:00",1279019,7.045,79.21,2.067,0.295,16.59,107.1992,17.71,18.83,22.34,0,110.8,13.24,18.52,41.2
"2009-09-28 00:05:30",1279020,6.943,82.4,2.547,0.226,16.58,107.199,17.71,18.8,22.35,0,110.8,13.24,18.52,44.4
"2009-09-28 00:06:00",1279021,7.319,79.62,2.374,0.163,16.62,107.1849,17.67,18.8,22.15,0,110.8,13.24,18.48,41.6
"2009-09-28 00:06:30",1279022,7.09,78.58,2.144,0.197,16.6,107.1709,17.63,18.76,22.48,0,110.8,13.24,18.45,40.6
"2009-09-28 00:07:00",1279023,7.053,78.35,1.194,0.13,16.61,107.1751,17.64,18.73,22.35,0,110.8,13.24,18.46,40.3
"2009-09-28 00:07:30",1279024,7.267,77.95,0.591,0.201,16.65,107.1787,17.65,18.73,21.8,0,110.7,13.24,18.47,39.9
"2009-09-28 00:08:00",1279025,7.285,77.74,0.925,0.168,16.66,107.17,17.63,18.72,21.64,0,110.8,13.24,18.44,39.7
"2009-09-28 00:08:30",1279026,6.924,79.33,0.847,0.091,16.63,107.1572,17.6,18.69,21.61,0,110.8,13.24,18.41,41.3
"2009-09-28 00:09:00",1279027,7.015,76.97,1.42,0.212,16.58,107.1515,17.58,18.68,22.06,0,110.7,13.24,18.40,39.0
"2009-09-28 00:09:30",1279028,7.279,75.95,1.255,0.16,16.6,107.1513,17.58,18.66,22.29,0,110.7,13.24,18.40,37.9
"2009-09-28 00:10:00",1279029,7.249,75.28,1.85,0.167,16.59,107.1519,17.58,18.67,22.15,0,110.7,13.24,18.40,37.3
"2009-09-28 00:10:30",1279030,7.501,74.34,0.958,0.163,16.61,107.1528,17.59,18.63,22.23,0,110.7,13.24,18.40,36.3
"2009-09-28 00:11:00",1279031,7.643,75.79,0.571,0.066,16.53,107.1477,17.57,18.63,22.21,0,110.7,13.24,18.39,37.8
"2009-09-28 00:11:30",1279032,7.72,72.21,1.591,0.083,16.48,107.1321,17.53,18.62,22.17,0,110.7,13.24,18.35,34.2
"2009-09-28 00:12:00",1279033,7.499,69.7,1.171,0.193,16.54,107.1253,17.52,18.58,22.31,0,110.7,13.24,18.33,31.7
"2009-09-28 00:12:30",1279034,7.182,69.36,1.048,0.101,16.5,107.1257,17.52,18.57,22.34,0,110.7,13.25,18.33,31.4
"2009-09-28 00:13:00",1279035,7.049,68.44,0.599,0.161,16.54,107.126,17.52,18.57,22.31,0,110.7,13.25,18.33,30.4
"2009-09-28 00:13:30",1279036,7.492,64.11,2.826,0.395,16.36,107.1232,17.51,18.55,22.57,0,110.7,13.25,18.32,26.1
"2009-09-28 00:14:00",1279037,7.424,66.79,2.654,0.31,16.33,107.1057,17.47,18.53,23.27,0,110.7,13.25,18.28,28.8
"2009-09-28 00:14:30",1279038,7.284,72.51,2.832,0.312,16.45,107.0922,17.43,18.52,23.17,0,110.7,13.25,18.24,34.5
"2009-09-28 00:15:00",1279039,8.26,74.43,1.308,0.378,16.34,107.0922,17.43,18.49,23.56,0,110.7,13.25,18.24,36.4
"2009-09-28 00:15:30",1279040,8.94,75.51,1.657,0.42,16.26,107.0852,17.41,18.48,24.09,0,110.7,13.25,18.23,37.5
"2009-09-28 00:15:30",1279041,9.12,77.34,1.224,0.226,16.18,107.059,17.35,18.47,24.5,0,110.7,13.25,18.16,39.3
"2009-09-28 00:16:00",1279042,9.29,79.56,1.154,0.171,16.35,107.0579,17.34,18.44,24.28,0,110.7,13.25,18.16,41.6
"2009-09-28 00:16:30",1279043,9.35,79.34,1.581,0.165,16.34,107.0368,17.29,18.41,24.21,0,110.7,13.25,18.10,41.3
"2009-09-28 00:17:00",1279044,9.89,80.4,0.827,0.174,16.32,107.0247,17.26,18.37,23.97,0,110.7,13.25,18.07,42.4
"2009-09-28 00:17:30",1279045,9.47,81.6,1.067,0.263,16.45,107.0064,17.21,18.34,23.8,0,110.7,13.25,18.02,43.6
"2009-09-28 00:18:00",1279046,9.98,81.6,0.46,0.154,16.27,106.9909,17.17,18.29,23.76,0,110.7,13.26,17.98,43.6
"2009-09-28 00:18:30",1279047,10.19,79.28,1.29,0.182,16.15,106.9731,17.13,18.27,24.06,0,110.7,13.26,17.94,41.3
"2009-09-28 00:19:00",1279048,10.12,81.4,0.865,0.166,16.25,106.9563,17.08,18.22,24.08,0,110.7,13.26,17.89,43.4
"2009-09-28 00:19:30",1279049,10.22,79.06,2.925,0.202,16.18,106.9284,17.01,18.19,24.35,0,110.7,13.26,17.82,41.1
"2009-09-28 00:20:00",1279050,9.93,77.06,1.448,0.306,16,106.9056,16.95,18.14,25.38,0,110.7,13.26,17.76,39.1
"2009-09-28 00:20:30",1279051,9.3,76.15,1.988,0.57,16,106.8856,16.9,18.1,25.97,0,110.7,13.25,17.71,38.2
"2009-09-28 00:21:00",1279052,9.03,78.67,1.287,0.249,15.98,106.8575,16.83,18.05,26.24,0,110.7,13.25,17.64,40.7
"2009-09-28 00:21:30",1279053,9.72,78.33,1.257,0.227,16.05,106.8412,16.79,18,26.3,0,110.7,13.25,17.60,40.3
"2009-09-28 00:22:00",1279054,9.8,79.43,1.035,0.231,15.98,106.8191,16.73,17.95,26.64,0,110.7,13.25,17.54,41.4
"2009-09-28 00:22:30",1279055,10.07,79.83,1.53,0.311,16.06,106.7931,16.66,17.9,26.86,0,110.7,13.25,17.48,41.8
"2009-09-28 00:23:00",1279056,10.27,80.3,2.006,0.247,16.15,106.7695,16.6,17.84,26.59,0,110.7,13.25,17.41,42.3
"2009-09-28 00:23:30",1279057,10.18,82,0.88,0.126,16.05,106.7508,16.56,17.79,26.66,0,110.7,13.25,17.37,44.0
"2009-09-28 00:24:00",1279058,10.16,81.8,1.137,0.157,16.01,106.7293,16.5,17.73,26.74,0,110.7,13.25,17.31,43.8
"2009-09-28 00:24:30",1279059,10.02,83.1,1.031,0.483,16.05,106.7083,16.45,17.66,26.73,0,110.7,13.26,17.26,45.1
"2009-09-28 00:25:00",1279060,10.77,81.3,0.957,0.241,15.95,106.6851,16.39,17.6,26.74,0,110.7,13.26,17.20,43.3
"2009-09-28 00:25:30",1279061,10.55,81.7,1.665,0.325,15.96,106.6608,16.33,17.54,26.69,0,110.7,13.26,17.13,43.7
"2009-09-28 00:26:00",1279062,10.52,81.4,0.811,0.307,15.95,106.64,16.27,17.49,26.62,0,110.7,13.26,17.08,43.4
"2009-09-28 00:26:30",1279063,10.55,80.9,1.632,0.342,15.93,106.6171,16.21,17.41,26.68,0,110.7,13.26,17.02,42.9
"2009-09-28 00:27:00",1279064,11.06,79.99,1.822,0.424,15.97,106.5956,16.16,17.35,26.56,0,110.7,13.26,16.97,42.0
"2009-09-28 00:27:30",1279065,11.02,80.5,1.398,0.177,15.95,106.5737,16.1,17.3,26.52,0,110.7,13.27,16.91,42.5
"2009-09-28 00:28:00",1279066,11.12,82.9,0.671,0.133,15.94,106.5509,16.04,17.23,26.85,0,110.7,13.27,16.85,44.9
"2009-09-28 00:28:30",1279067,11.14,83.4,0.513,0.141,15.95,106.5217,15.97,17.17,27.15,0,110.7,13.27,16.78,45.4
"2009-09-28 00:29:00",1279068,11.22,83,0.706,0.062,15.95,106.4941,15.9,17.11,27.2,0,110.6,13.27,16.71,45.0
"2009-09-28 00:29:30",1279069,11.02,84,0.388,0.15,15.96,106.48,15.86,17.06,27.13,0,110.6,13.27,16.67,46.0
"2009-09-28 00:30:00",1279070,11.13,84.1,0.782,0.255,15.91,106.4527,15.79,17,27.15,0,110.6,13.27,16.60,46.1
"2009-09-28 00:30:30",1279071,11.56,82.9,0.793,0.196,15.86,106.433,15.74,16.95,26.84,0,110.6,13.27,16.55,44.9
"2009-09-28 00:31:00",1279072,11.6,84,0.497,0.078,15.9,106.4175,15.7,16.89,26.71,0,110.6,13.27,16.51,46.0
"2009-09-28 00:31:30",1279073,11.51,84.3,0.588,0.124,15.92,106.3888,15.63,16.84,26.55,0,110.6,13.27,16.44,46.3
"2009-09-28 00:32:00",1279074,11.66,84.1,0.719,0.196,15.85,106.3778,15.6,16.78,26.74,0,110.6,13.27,16.41,46.1
"2009-09-28 00:32:30",1279075,11.62,83,0.941,0.115,15.89,106.3516,15.53,16.74,26.96,0,110.6,13.27,16.34,45.0
"2009-09-28 00:33:00",1279076,11.71,82.5,0.491,0.146,15.86,106.3432,15.51,16.69,27.09,0,110.6,13.27,16.32,44.5
"2009-09-28 00:33:30",1279077,11.79,82.7,0.895,0.166,15.87,106.3178,15.45,16.63,27.13,0,110.6,13.27,16.25,44.7
"2009-09-28 00:34:00",1279078,11.58,83,1.181,0.165,15.85,106.3057,15.42,16.6,27.36,0,110.6,13.27,16.22,45.0
"2009-09-28 00:34:30",1279079,11.67,84.4,0.773,0.115,15.93,106.2841,15.36,16.55,27.36,0,110.6,13.28,16.17,46.4
"2009-09-28 00:35:00",1279080,11.73,83.7,0.679,0.137,15.94,106.2739,15.33,16.5,27.42,0,110.6,13.28,16.14,45.7
"2009-09-28 00:35:30",1279081,11.68,84.6,1.057,0.219,15.92,106.25,15.27,16.46,27.55,0,110.6,13.28,16.08,46.6
"2009-09-28 00:36:00",1279082,11.54,84.3,0.502,0.115,15.91,106.2495,15.27,16.43,27.64,0,110.6,13.28,16.08,46.3
"2009-09-28 00:36:30",1279083,11.63,83.5,0.698,0.108,15.91,106.2219,15.2,16.4,27.75,0,110.6,13.28,16.01,45.5
"2009-09-28 00:37:00",1279084,11.63,83.2,0.951,0.134,15.9,106.2222,15.2,16.36,27.94,0,110.6,13.28,16.01,45.2
"2009-09-28 00:37:30",1279085,11.41,82.5,1.196,0.227,15.86,106.2197,15.2,16.31,28.09,0,110.6,13.28,16.00,44.5
"2009-09-28 00:38:00",1279086,11.59,83.5,0.723,0.133,15.9,106.206,15.16,16.29,28.06,0,110.6,13.28,15.97,45.5
"2009-09-28 00:38:30",1279087,11.42,83.2,1.041,0.146,15.94,106.2082,15.17,16.25,28.13,0,110.6,13.27,15.97,45.2
"2009-09-28 00:39:00",1279088,11.35,83.2,0.626,0.18,15.91,106.186,15.11,16.22,28.22,0,110.6,13.28,15.91,45.2
"2009-09-28 00:39:30",1279089,11.42,82.7,0.716,0.114,15.94,106.177,15.09,16.19,28.3,0,110.6,13.28,15.89,44.7
"2009-09-28 00:40:00",1279090,11.55,81.9,0.456,0.144,15.87,106.1745,15.08,16.16,28.38,0,110.6,13.28,15.88,43.9
"2009-09-28 00:40:30",1279091,11.5,81.8,0.72,0.148,15.89,106.1561,15.03,16.13,28.41,0,110.5,13.28,15.84,43.8
"2009-09-28 00:41:00",1279092,11.64,79.86,0.607,0.106,15.83,106.1507,15.02,16.1,28.49,0,110.6,13.28,15.82,41.9
"2009-09-28 00:41:30",1279093,11.55,80.7,0.498,0.132,15.82,106.1482,15.01,16.06,28.62,0,110.6,13.28,15.82,42.7
"2009-09-28 00:42:00",1279094,11.45,80.8,0.506,0.084,15.85,106.1234,14.95,16.03,28.46,0,110.6,13.28,15.75,42.8
"2009-09-28 00:42:30",1279095,12.69,86.3,6.669,1.345,17.93,106.1169,14.93,16.1,28.47,0,110.6,13.25,15.74,48.3
"2009-09-28 00:43:00",1279096,11.94,82.3,5.065,1.123,16.97,106.1135,14.92,16.15,28.75,0,110.6,13.25,15.73,44.3
"2009-09-28 00:43:30",1279097,12,80.7,4.871,1.128,16.26,106.0907,14.87,15.96,28.99,0,110.6,13.25,15.67,42.7
"2009-09-28 00:44:00",1279098,11.6,78.84,0.888,0.17,15.43,106.0831,14.85,15.93,28.93,0,110.6,13.29,15.65,40.8
"2009-09-28 00:44:30",1279099,11.53,80.3,4.633,0.628,16.38,106.0744,14.82,16.06,28.92,0,110.5,13.25,15.63,42.3
"2009-09-28 00:45:00",1279100,12.21,83.5,6.461,1.368,16.78,106.0502,14.76,15.91,28.92,0,110.5,13.25,15.56,45.5
"2009-09-28 00:45:30",1279101,11.21,79.41,0.626,0.134,14.99,106.0493,14.76,15.92,29.01,0,110.5,13.29,15.56,41.4
"2009-09-28 00:46:00",1279102,13.1,89.8,6.896,1.284,18.41,106.0364,14.73,16.1,29.27,0,110.5,13.25,15.53,51.8
"2009-09-28 00:46:30",1279103,13.6,91.3,6.709,1.357,17.93,106.0158,14.67,15.92,29.19,0,110.5,13.25,15.48,53.3
"2009-09-28 00:47:00",1279104,12.01,83.8,0.02,0.129,14.37,106.0155,14.67,15.77,29.15,0,110.5,13.29,15.48,45.8
"2009-09-28 00:47:30",1279105,12.19,84.8,0.678,0.097,14.33,106.0051,14.65,15.75,29.11,0,110.5,13.29,15.45,46.8
"2009-09-28 00:48:00",1279106,13.22,86.9,6.213,1.285,16.14,105.9829,14.59,15.84,29.21,0,110.5,13.26,15.39,48.9
"2009-09-28 00:48:30",1279107,12.94,83.3,4.522,1.115,15.39,105.9841,14.59,15.8,29.42,0,110.5,13.26,15.40,45.3
"2009-09-28 00:49:00",1279108,13.06,86.5,6.592,1.339,16.49,105.981,14.58,15.72,29.09,0,110.5,13.26,15.39,48.5
"2009-09-28 00:49:30",1279109,12.06,84.8,5.662,0.943,16.07,105.9634,14.54,15.81,29.3,0,110.5,13.26,15.34,46.8
"2009-09-28 00:50:00",1279110,12.21,85.5,6.392,1.327,16.18,105.9668,14.55,15.63,29.24,0,110.5,13.26,15.35,47.5
"2009-09-28 00:50:30",1279111,12.06,85.9,6.251,1.163,16.36,105.9654,14.54,15.77,29.32,0,110.5,13.26,15.35,47.9
"2009-09-28 00:51:00",1279112,11.3,82.2,0.527,0.133,14.57,105.943,14.49,15.56,29.25,0,110.5,13.3,15.29,44.2
"2009-09-28 00:51:30",1279113,12.1,88.3,7.294,1.278,16.99,105.9452,14.49,15.72,29.39,0,110.5,13.26,15.30,50.3
"2009-09-28 00:52:00",1279114,11.35,85.6,5.635,1.121,15.92,105.9479,14.5,15.63,29.31,0,110.5,13.26,15.30,47.6
"2009-09-28 00:52:30",1279115,12,91.5,6.957,1.374,17.83,105.935,14.47,15.76,29.59,0,110.5,13.26,15.27,53.5
"2009-09-28 00:53:00",1279116,11.38,86.7,6.24,1.184,15.73,105.9238,14.44,15.48,29.29,0,110.5,13.26,15.24,48.7
"2009-09-28 00:53:30",1279117,11.27,84.4,4.846,1.01,14.99,105.9162,14.42,15.47,29.21,0,110.5,13.26,15.22,46.4
"2009-09-28 00:54:00",1279118,12.11,87.4,6.709,1.309,16.69,105.9162,14.42,15.61,29.35,0,110.5,13.26,15.22,49.4
"2009-09-28 00:54:30",1279119,10.96,81.5,0.322,0.051,14.54,105.9162,14.42,15.43,29.19,0,110.5,13.29,15.22,43.5
"2009-09-28 00:55:00",1279120,12.17,87.7,7.087,1.407,16.92,105.9145,14.41,15.57,29.32,0,110.5,13.26,15.22,49.7
"2009-09-28 00:55:30",1279121,11.22,81.6,2.561,0.482,14.96,105.8931,14.36,15.56,29.37,0,110.5,13.25,15.16,43.6
"2009-09-28 00:56:00",1279122,12.32,86.8,6.958,1.398,16.32,105.8823,14.33,15.43,29.25,0,110.5,13.26,15.13,48.8
"2009-09-28 00:56:30",1279123,11.12,81.6,0.286,0.116,14.38,105.8823,14.33,15.39,29.25,0,110.5,13.29,15.13,43.6
"2009-09-28 00:57:00",1279124,12.38,88.9,7.008,1.353,17.01,105.8823,14.33,15.5,29.41,0,110.5,13.26,15.13,50.9
"2009-09-28 00:57:30",1279125,11.29,85.4,5.444,0.913,15.77,105.8804,14.33,15.53,29.46,0,110.5,13.26,15.13,47.4
"2009-09-28 00:58:00",1279126,12.45,89.7,7.067,1.383,17.13,105.8694,14.3,15.42,29.43,0,110.5,13.26,15.10,51.7
"2009-09-28 00:58:30",1279127,12.16,88.6,6.869,1.355,17.07,105.8528,14.26,15.57,29.64,0,110.5,13.26,15.06,50.6
"2009-09-28 00:59:00",1279128,12.29,87.8,6.774,1.326,16.26,105.8488,14.25,15.36,29.61,0,110.5,13.27,15.05,49.8
"2009-09-28 00:59:30",1279129,11.28,83.4,0.48,0.107,14.27,105.8485,14.24,15.36,29.58,0,110.5,13.3,15.05,45.4
"2009-09-28 01:00:00",1279130,12.74,89.8,7.214,1.364,16.62,105.848,14.24,15.38,29.66,0,110.5,13.27,15.05,51.8
"2009-09-28 01:00:30",1279131,12.7,89.9,7.139,1.355,16.45,105.837,14.22,15.44,29.84,0,110.5,13.27,15.02,51.9
"2009-09-28 01:01:00",1279132,11.5,84.6,1.235,0.589,14.05,105.8164,14.16,15.25,29.63,0,110.5,13.27,14.96,46.6
"2009-09-28 01:01:30",1279133,11.13,84.8,0.193,0.11,14.13,105.8147,14.16,15.25,29.47,0,110.5,13.3,14.96,46.8
"2009-09-28 01:02:00",1279134,11.72,89.2,6.41,1.224,16.19,105.8153,14.16,15.4,29.61,0,110.5,13.27,14.96,51.2
"2009-09-28 01:02:30",1279135,11.41,86.4,5.088,1.066,15.16,105.8177,14.17,15.27,29.52,0,110.5,13.27,14.97,48.4
"2009-09-28 01:03:00",1279136,11.71,89.7,7.139,1.255,16.82,105.8169,14.16,15.34,29.58,0,110.5,13.27,14.97,51.7
"2009-09-28 01:03:30",1279137,12.4,91.1,6.626,1.337,17.74,105.8019,14.13,15.49,29.86,0,110.5,13.27,14.93,53.1
"2009-09-28 01:04:00",1279138,12.63,91.3,6.53,1.245,18.13,105.797,14.11,15.37,29.87,0,110.5,13.27,14.91,53.3
"2009-09-28 01:04:30",1279139,11.25,84.5,6.109,1.09,15.61,105.8021,14.13,15.34,29.85,0,110.5,13.27,14.93,46.5
"2009-09-28 01:05:00",1279140,11.49,85,6.157,1.136,15.18,105.8048,14.13,15.19,29.74,0,110.5,13.27,14.93,47.0
"2009-09-28 01:05:30",1279141,11.82,85.4,7.121,1.269,15.87,105.8083,14.14,15.27,29.96,0,110.5,13.27,14.94,47.4
"2009-09-28 01:06:00",1279142,11.12,79,0.859,0.095,13.73,105.8068,14.14,15.12,29.88,0,110.5,13.31,14.94,41.0
"2009-09-28 01:06:30",1279143,11.19,78.26,0.527,0.107,13.98,105.788,14.09,15.11,29.89,0,110.5,13.31,14.89,40.3
"2009-09-28 01:07:00",1279144,12.62,84.6,6.881,1.211,16.72,105.7814,14.07,15.27,30.09,0,110.5,13.28,14.87,46.6
"2009-09-28 01:07:30",1279145,12.02,82.1,6.205,1.295,15.96,105.7811,14.07,15.25,30.12,0,110.5,13.28,14.87,44.1
"2009-09-28 01:08:00",1279146,13,87.8,6.241,1.24,18.05,105.7823,14.08,15.33,30.29,0,110.4,13.28,14.88,49.8
"2009-09-28 01:08:30",1279147,12.64,86.5,6.846,1.314,17.06,105.7609,14.02,15.27,30.34,0,110.4,13.28,14.82,48.5
"2009-09-28 01:09:00",1279148,11.42,82.2,5.953,1.195,15.34,105.7491,13.99,15.22,30.38,0,110.4,13.28,14.79,44.2
"2009-09-28 01:09:30",1279149,11.86,85.1,6.838,1.356,15.94,105.7491,13.99,15.11,30.36,0,110.4,13.28,14.79,47.1
"2009-09-28 01:10:00",1279150,10.38,79.29,0.525,0.135,13.58,105.7474,13.99,14.99,30.28,0,110.4,13.31,14.79,41.3
"2009-09-28 01:10:30",1279151,10.19,79.22,0.502,0.069,13.72,105.7234,13.92,14.99,30.27,0,110.4,13.31,14.73,41.2
"2009-09-28 01:11:00",1279152,10.06,79.65,0.542,0.057,14.09,105.7152,13.9,14.96,30.35,0,110.4,13.31,14.70,41.7
"2009-09-28 01:11:30",1279153,11.24,84.9,7.197,1.37,16.29,105.7152,13.9,14.99,30.43,0,110.4,13.27,14.70,46.9
"2009-09-28 01:12:00",1279154,10.84,82.9,6.375,1.293,16.45,105.7152,13.9,15.16,30.68,0,110.4,13.27,14.70,44.9
"2009-09-28 01:12:30",1279155,10.85,82.6,6.479,1.227,16.03,105.7113,13.89,15.12,30.65,0,110.4,13.27,14.69,44.6
"2009-09-28 01:13:00",1279156,11.89,85.8,6.814,1.322,17.3,105.6921,13.84,15.13,30.73,0,110.4,13.27,14.64,47.8
"2009-09-28 01:13:30",1279157,12.45,89.2,5.663,1.161,17.47,105.6828,13.82,15.11,30.8,0,110.4,13.27,14.62,51.2
"2009-09-28 01:14:00",1279158,10.64,79.29,0.49,0.314,13.51,105.6814,13.82,14.88,30.64,0,110.4,13.27,14.62,41.3
"2009-09-28 01:14:30",1279159,10.76,78.95,0.636,0.069,13.3,105.6814,13.82,14.86,30.74,0,110.4,13.31,14.62,40.9
"2009-09-28 01:15:00",1279160,10.84,79.28,0.494,0.064,13.58,105.6814,13.82,14.83,30.86,0,110.4,13.31,14.62,41.3
"2009-09-28 01:15:30",1279161,10.83,79.07,0.382,0.074,13.93,105.6696,13.79,14.83,30.9,0,110.4,13.31,14.59,41.1
"2009-09-28 01:16:00",1279162,11.7,82.4,6.069,1.212,15.48,105.6501,13.74,14.87,30.98,0,110.4,13.28,14.54,44.4
"2009-09-28 01:16:30",1279163,12.95,89.6,6.137,1.169,18.12,105.6476,13.73,15.07,31.08,0,110.4,13.28,14.53,51.6
"2009-09-28 01:17:00",1279164,12.12,85.3,6.857,1.345,16.36,105.6476,13.73,14.97,31.02,0,110.4,13.28,14.53,47.3
"2009-09-28 01:17:30",1279165,12.98,89.6,6.503,1.196,17.55,105.6439,13.72,15.05,31.11,0,110.4,13.28,14.52,51.6
"2009-09-28 01:18:00",1279166,11.9,86.9,6.937,1.26,16.08,105.6313,13.69,14.93,31.14,0,110.4,13.28,14.49,48.9
"2009-09-28 01:18:30",1279167,10.92,81.2,0.328,0.04,13.26,105.615,13.65,14.73,30.99,0,110.4,13.32,14.45,43.2
"2009-09-28 01:19:00",1279168,10.87,80.7,0.592,0.056,13.38,105.6156,13.65,14.72,31.06,0,110.4,13.32,14.45,42.7
"2009-09-28 01:19:30",1279169,11.09,79.77,0.416,0.142,13.7,105.6147,13.65,14.71,31.18,0,110.4,13.32,14.45,41.8
"2009-09-28 01:20:00",1279170,11.95,85,6.543,1.214,15.36,105.6109,13.64,14.72,31.24,0,110.4,13.29,14.44,47.0
"2009-09-28 01:20:30",1279171,12.7,90,6.815,1.293,17.87,105.5919,13.59,14.93,31.54,0,110.4,13.29,14.39,52.0
"2009-09-28 01:21:00",1279172,13.08,91.7,5.654,1.011,17.92,105.5928,13.59,14.87,31.49,0,110.4,13.29,14.39,53.7
"2009-09-28 01:21:30",1279173,12.15,86.8,6.803,1.356,15.78,105.5955,13.6,14.83,31.38,0,110.4,13.29,14.40,48.8
"2009-09-28 01:22:00",1279174,11.97,85,7.073,1.213,15.39,105.5984,13.6,14.86,31.5,0,110.4,13.28,14.40,47.0
"2009-09-28 01:22:30",1279175,11.63,83.7,5.204,1.173,14.03,105.5938,13.59,14.6,31.33,0,110.4,13.28,14.39,45.7
"2009-09-28 01:23:00",1279176,10.79,81.3,0.339,0.091,13.26,105.575,13.54,14.59,31.34,0,110.4,13.32,14.34,43.3
"2009-09-28 01:23:30",1279177,10.7,81.2,0.346,0.073,13.56,105.5703,13.53,14.59,31.42,0,110.4,13.32,14.33,43.2
"2009-09-28 01:24:00",1279178,11.74,88.3,7.16,1.29,16.16,105.5744,13.54,14.66,31.63,0,110.4,13.29,14.34,50.3
"2009-09-28 01:24:30",1279179,12.09,90.2,6.824,1.19,16.93,105.5746,13.54,14.77,31.91,0,110.4,13.29,14.34,52.2
"2009-09-28 01:25:00",1279180,12.44,91.4,6.534,1.21,17.52,105.5549,13.49,14.73,32.01,0,110.4,13.29,14.29,53.4
"2009-09-28 01:25:30",1279181,10.72,84.7,5.675,0.992,14.67,105.5462,13.47,14.69,32.11,0,110.4,13.29,14.27,46.7
"2009-09-28 01:26:00",1279182,11.27,86.8,6.587,1.281,15.23,105.5474,13.47,14.73,32.23,0,110.4,13.29,14.27,48.8
"2009-09-28 01:26:30",1279183,11.09,82.7,6.039,1.158,14.23,105.5477,13.47,14.55,32.07,0,110.4,13.29,14.27,44.7
"2009-09-28 01:27:00",1279184,10.54,80.1,2.731,0.51,13.78,105.5475,13.47,14.5,32.11,0,110.4,13.33,14.27,42.1
"2009-09-28 01:27:30",1279185,10.19,80.6,0.616,0.131,13.52,105.5379,13.45,14.45,32.25,0,110.4,13.32,14.25,42.6
"2009-09-28 01:28:00",1279186,10.98,85,6.011,1.264,15.69,105.5159,13.39,14.57,32.44,0,110.4,13.29,14.19,47.0
"2009-09-28 01:28:30",1279187,12.04,90.9,5.62,1.022,17.99,105.5142,13.39,14.66,32.63,0,110.4,13.28,14.19,52.9
"2009-09-28 01:29:00",1279188,12.02,88.9,5.446,1.241,17.36,105.5142,13.39,14.65,32.69,0,110.4,13.28,14.19,50.9
"2009-09-28 01:29:30",1279189,10.49,82.8,5.017,1.163,14.14,105.5125,13.38,14.39,32.52,0,110.4,13.28,14.18,44.8
"2009-09-28 01:30:00",1279190,10.05,79.2,1.102,0.163,12.94,105.5032,13.36,14.41,32.63,0,110.4,13.29,14.16,41.2
"2009-09-28 01:30:30",1279191,11.31,84.7,6.743,1.298,15.02,105.4826,13.31,14.49,32.69,0,110.4,13.28,14.11,46.7
"2009-09-28 01:31:00",1279192,10.72,80.3,3.426,0.506,13.91,105.4804,13.3,14.49,32.73,0,110.4,13.32,14.10,42.3
"2009-09-28 01:31:30",1279193,10.68,79.8,0.605,0.075,13.57,105.4804,13.3,14.33,32.7,0,110.4,13.29,14.10,41.8
"2009-09-28 01:32:00",1279194,11.73,85.9,6.751,1.267,15.49,105.4795,13.3,14.48,33.08,0,110.4,13.29,14.10,47.9
"2009-09-28 01:32:30",1279195,13.13,95.7,4.487,0.787,17.86,105.468,13.27,14.58,33.41,0,110.4,13.29,14.07,57.7
"2009-09-28 01:33:00",1279196,11.66,93.3,6.863,1.278,16.01,105.4477,13.22,14.56,33.6,0,110.4,13.3,14.02,55.3
"2009-09-28 01:33:30",1279197,10.75,87.5,5.258,1.144,13.85,105.4465,13.22,14.33,33.45,0,110.4,13.3,14.01,49.5
"2009-09-28 01:34:00",1279198,11.05,90.7,7.398,1.347,14.24,105.4465,13.22,14.3,33.49,0,110.4,13.3,14.01,52.7
"2009-09-28 01:34:30",1279199,10.94,90.9,6.865,1.297,15.18,105.4302,13.17,14.38,33.6,0,110.4,13.3,13.97,52.9
"2009-09-28 01:35:00",1279200,9.86,84.8,0.978,0.138,13.28,105.4127,13.13,14.21,33.68,0,110.4,13.33,13.93,46.8
"2009-09-28 01:35:30",1279201,11.09,89.8,7.307,1.491,15.53,105.4127,13.13,14.33,33.6,0,110.4,13.3,13.93,51.8
"2009-09-28 01:36:00",1279202,11.32,91.4,6.733,1.246,15.87,105.411,13.12,14.38,33.36,0,110.4,13.3,13.92,53.4
"2009-09-28 01:36:30",1279203,12.45,95,6.218,1.183,16.96,105.3938,13.08,14.41,33.3,0,110.4,13.3,13.88,57.0
"2009-09-28 01:37:00",1279204,11.92,92.3,6.422,1.3,15.55,105.3789,13.04,14.37,33.16,0,110.4,13.3,13.84,54.3
"2009-09-28 01:37:30",1279205,10.4,84.6,0.724,0.114,12.55,105.3789,13.04,14.11,32.73,0,110.4,13.34,13.84,46.6
"2009-09-28 01:38:00",1279206,10.76,85.4,4.404,0.962,13.08,105.3741,13.03,14.13,32.89,0,110.4,13.3,13.83,47.4
"2009-09-28 01:38:30",1279207,11.22,89,6.39,1.302,14.97,105.3569,12.99,14.21,33.1,0,110.4,13.3,13.78,51.0
"2009-09-28 01:39:00",1279208,10.28,83.8,0.311,0.05,13.41,105.3451,12.96,14.14,32.98,0,110.4,13.34,13.75,45.8
"2009-09-28 01:39:30",1279209,11.24,90,6.606,1.276,15.78,105.3451,12.96,14.23,33.09,0,110.4,13.3,13.75,52.0
"2009-09-28 01:40:00",1279210,11.62,92,6.856,1.324,16.52,105.3451,12.96,14.24,33.13,0,110.4,13.3,13.75,54.0
"2009-09-28 01:40:30",1279211,11.71,92.9,6.31,1.317,16.09,105.3445,12.95,14.25,33.19,0,110.4,13.3,13.75,54.9
"2009-09-28 01:41:00",1279212,10.99,90.6,6.565,1.523,14.9,105.3356,12.93,14.05,33.14,0,110.4,13.3,13.73,52.6
"2009-09-28 01:41:30",1279213,9.62,84.3,0.956,0.155,12.36,105.3159,12.88,13.97,33.28,0,110.4,13.34,13.68,46.3
"2009-09-28 01:42:00",1279214,10.11,87.2,6.71,1.245,14.4,105.3166,12.88,14.12,33.69,0,110.4,13.3,13.68,49.2
"2009-09-28 01:42:30",1279215,10.24,86.8,6.23,1.223,14.27,105.3204,12.89,14.05,33.6,0,110.4,13.3,13.69,48.8
"2009-09-28 01:43:00",1279216,11.09,90.3,7.406,1.363,16.29,105.3219,12.9,14.19,33.68,0,110.4,13.3,13.69,52.3
"2009-09-28 01:43:30",1279217,11.16,90.3,6.944,1.34,15.45,105.3146,12.88,14.07,33.41,0,110.4,13.3,13.67,52.3
"2009-09-28 01:44:00",1279218,11.28,91.2,6.251,1.303,15.87,105.2942,12.83,14.11,33.48,0,110.4,13.3,13.62,53.2
"2009-09-28 01:44:30",1279219,9.97,82.8,2.661,0.669,12.83,105.2887,12.81,14,33.51,0,110.4,13.3,13.61,44.8
"2009-09-28 01:45:00",1279220,10.23,85.3,6.317,1.104,13.94,105.2887,12.81,13.97,33.55,0,110.4,13.3,13.61,47.3
"2009-09-28 01:45:30",1279221,9.58,81.6,0.672,0.104,12.58,105.2905,12.82,13.88,33.53,0,110.4,13.34,13.61,43.6
"2009-09-28 01:46:00",1279222,10.06,85.1,5.878,1.129,14.8,105.2896,12.81,14.01,33.92,0,110.4,13.3,13.61,47.1
"2009-09-28 01:46:30",1279223,10.57,87.3,6.709,1.292,16.27,105.2838,12.8,14.02,34.34,0,110.4,13.3,13.60,49.3
"2009-09-28 01:47:00",1279224,11.15,89.7,5.571,1.16,17.22,105.263,12.75,14.08,34.28,0,110.4,13.3,13.54,51.7
"2009-09-28 01:47:30",1279225,9.6,81.8,5.606,1.125,13.99,105.264,12.75,13.95,34.29,0,110.4,13.3,13.54,43.8
"2009-09-28 01:48:00",1279226,9.63,81.3,5.979,1.091,14.04,105.2661,12.75,13.99,34.28,0,110.4,13.3,13.55,43.3